• en Belgique
  • Liste des pays
  • À 7 jours
  • Température de l'eau
  • Carte satellitaire
  • Carte météo
  • Widgets météo
  • user-avatar
    Se connecter

    Météo par heure à Pinsk

    Ce jour, 21 Octobre, Dimanche

    Heure Température Précipitation Vent Pression Humidité
    00:00 +6°C° 0 mm 2 m/s 754 mmHg 82%
    01:00 +6°C° 0 mm 2 m/s 754 mmHg 84%
    02:00 +5°C° 0 mm 2 m/s 754 mmHg 85%
    03:00 +5°C° 0 mm 2 m/s 754 mmHg 86%
    04:00 +5°C° 0 mm 2 m/s 755 mmHg 86%
    05:00 +4°C° 0 mm 2 m/s 755 mmHg 86%
    06:00 +4°C° 0 mm 2 m/s 755 mmHg 85%
    07:00 +5°C° 0 mm 2 m/s 755 mmHg 83%
    08:00 +4°C° 0 mm 3 m/s 756 mmHg 81%
    09:00 +7°C° 0 mm 3 m/s 756 mmHg 73%
    10:00 +9°C° 0 mm 3 m/s 756 mmHg 65%
    11:00 +11°C° 0 mm 3 m/s 757 mmHg 57%
    12:00 +11°C° 0 mm 3 m/s 757 mmHg 55%
    13:00 +13°C° 0 mm 2 m/s 757 mmHg 52%
    14:00 +13°C° 0 mm 2 m/s 757 mmHg 49%
    15:00 +12°C° 0 mm 2 m/s 757 mmHg 53%
    16:00 +10°C° 0 mm 2 m/s 757 mmHg 58%
    17:00 +9°C° 0 mm 2 m/s 757 mmHg 62%
    18:00 +8°C° 0 mm 2 m/s 757 mmHg 66%
    19:00 +7°C° 0 mm 2 m/s 757 mmHg 69%
    20:00 +6°C° 0 mm 2 m/s 757 mmHg 73%
    21:00 +7°C° 0 mm 1 m/s 757 mmHg 75%
    22:00 +6°C° 0 mm 1 m/s 757 mmHg 77%
    23:00 +6°C° 0 mm 1 m/s 757 mmHg 79%

    Demain, 22 Octobre, Lundi

    Heure Température Précipitation Vent Pression Humidité
    00:00 +6°C° 0 mm 1 m/s 757 mmHg 81%
    01:00 +5°C° 0 mm 1 m/s 757 mmHg 83%
    02:00 +5°C° 0 mm 1 m/s 757 mmHg 85%
    03:00 +5°C° 0 mm 1 m/s 757 mmHg 86%
    04:00 +4°C° 0 mm 1 m/s 757 mmHg 87%
    05:00 +3°C° 0 mm 0 m/s 757 mmHg 88%
    06:00 +4°C° 0 mm 1 m/s 757 mmHg 86%
    07:00 +5°C° 0 mm 1 m/s 757 mmHg 85%
    08:00 +5°C° 0 mm 1 m/s 757 mmHg 83%
    09:00 +7°C° 0 mm 1 m/s 756 mmHg 76%
    10:00 +9°C° 0 mm 1 m/s 756 mmHg 68%
    11:00 +10°C° 0 mm 2 m/s 756 mmHg 60%
    12:00 +10°C° 0 mm 2 m/s 755 mmHg 58%
    13:00 +11°C° 0 mm 3 m/s 755 mmHg 56%
    14:00 +11°C° 0 mm 3 m/s 754 mmHg 53%
    15:00 +10°C° 0 mm 3 m/s 754 mmHg 58%
    16:00 +9°C° 0 mm 2 m/s 753 mmHg 64%
    17:00 +8°C° 0 mm 2 m/s 753 mmHg 69%
    18:00 +7°C° 0 mm 2 m/s 752 mmHg 72%
    19:00 +7°C° 0 mm 2 m/s 752 mmHg 76%
    20:00 +5°C° 0 mm 3 m/s 752 mmHg 79%
    21:00 +5°C° 0.1 mm 3 m/s 752 mmHg 80%
    22:00 +5°C° 0.1 mm 3 m/s 751 mmHg 80%
    23:00 +5°C° 0.1 mm 3 m/s 751 mmHg 81%

    Après-demain, 23 Octobre, Mardi

    Heure Température Précipitation Vent Pression Humidité
    00:00 +5°C° 0.5 mm 3 m/s 751 mmHg 83%
    01:00 +6°C° 0.5 mm 4 m/s 750 mmHg 86%
    02:00 +6°C° 0.5 mm 4 m/s 750 mmHg 88%
    03:00 +6°C° 0.2 mm 4 m/s 750 mmHg 88%
    04:00 +5°C° 0.2 mm 4 m/s 750 mmHg 89%
    05:00 +5°C° 0.2 mm 3 m/s 749 mmHg 89%
    06:00 +4°C° 0 mm 3 m/s 749 mmHg 89%
    07:00 +4°C° 0 mm 3 m/s 749 mmHg 89%
    08:00 +3°C° 0 mm 3 m/s 749 mmHg 89%
    09:00 +5°C° 0 mm 3 m/s 749 mmHg 81%
    10:00 +6°C° 0 mm 4 m/s 748 mmHg 73%
    11:00 +7°C° 0 mm 4 m/s 748 mmHg 66%
    12:00 +7°C° 0.1 mm 5 m/s 747 mmHg 64%
    13:00 +8°C° 0.1 mm 5 m/s 746 mmHg 62%
    14:00 +8°C° 0.1 mm 6 m/s 745 mmHg 61%
    15:00 +7°C° 0 mm 6 m/s 744 mmHg 63%
    16:00 +7°C° 0 mm 6 m/s 743 mmHg 66%
    17:00 +5°C° 0 mm 6 m/s 742 mmHg 69%
    18:00 +5°C° 0.1 mm 6 m/s 740 mmHg 71%
    19:00 +5°C° 0.1 mm 7 m/s 739 mmHg 73%
    20:00 +4°C° 0.1 mm 8 m/s 738 mmHg 74%
    21:00 +5°C° 1.1 mm 8 m/s 736 mmHg 77%
    22:00 +5°C° 1.1 mm 8 m/s 734 mmHg 80%
    23:00 +5°C° 1.1 mm 8 m/s 733 mmHg 83%

    24 Octobre, Mercredi

    Heure Température Précipitation Vent Pression Humidité
    00:00 +5°C° 0.4 mm 8 m/s 732 mmHg 82%
    01:00 +6°C° 0.4 mm 8 m/s 731 mmHg 82%
    02:00 +6°C° 0.4 mm 7 m/s 730 mmHg 82%
    03:00 +6°C° 0.1 mm 7 m/s 729 mmHg 81%
    04:00 +5°C° 0.1 mm 7 m/s 728 mmHg 81%
    05:00 +5°C° 0.1 mm 7 m/s 727 mmHg 81%
    06:00 +4°C° 0.3 mm 7 m/s 727 mmHg 80%
    07:00 +4°C° 0.3 mm 7 m/s 727 mmHg 79%
    08:00 +4°C° 0.3 mm 8 m/s 727 mmHg 78%
    09:00 +4°C° 0.7 mm 8 m/s 727 mmHg 77%
    10:00 +4°C° 0.7 mm 8 m/s 727 mmHg 76%
    11:00 +4°C° 0.7 mm 8 m/s 728 mmHg 75%
    12:00 +5°C° 0.3 mm 9 m/s 728 mmHg 72%
    13:00 +5°C° 0.3 mm 9 m/s 728 mmHg 69%
    14:00 +6°C° 0.3 mm 9 m/s 729 mmHg 66%
    15:00 +5°C° 0.7 mm 9 m/s 729 mmHg 68%
    16:00 +5°C° 0.7 mm 10 m/s 729 mmHg 71%
    17:00 +3°C° 0.7 mm 10 m/s 729 mmHg 73%
    18:00 +3°C° 0.6 mm 9 m/s 729 mmHg 75%
    19:00 +5°C° 0.6 mm 9 m/s 730 mmHg 77%
    20:00 +5°C° 0.6 mm 9 m/s 730 mmHg 79%
    21:00 +5°C° 0.5 mm 9 m/s 731 mmHg 80%
    22:00 +4°C° 0.5 mm 8 m/s 731 mmHg 81%
    23:00 +4°C° 0.5 mm 8 m/s 732 mmHg 81%

    25 Octobre, Jeudi

    Heure Température Précipitation Vent Pression Humidité
    00:00 +4°C° 0.2 mm 8 m/s 733 mmHg 80%
    01:00 +4°C° 0.2 mm 8 m/s 734 mmHg 79%
    02:00 +3°C° 0.2 mm 9 m/s 735 mmHg 78%
    03:00 +3°C° 0.1 mm 9 m/s 736 mmHg 77%
    04:00 +3°C° 0.1 mm 9 m/s 737 mmHg 76%
    05:00 +3°C° 0.1 mm 9 m/s 737 mmHg 76%
    06:00 +2°C° 0 mm 9 m/s 738 mmHg 75%
    07:00 +2°C° 0 mm 8 m/s 739 mmHg 74%
    08:00 +2°C° 0 mm 8 m/s 740 mmHg 74%
    09:00 +4°C° 0 mm 8 m/s 740 mmHg 72%
    10:00 +4°C° 0 mm 8 m/s 740 mmHg 71%
    11:00 +5°C° 0 mm 8 m/s 741 mmHg 69%
    12:00 +5°C° 0.1 mm 8 m/s 741 mmHg 66%
    13:00 +6°C° 0.1 mm 8 m/s 741 mmHg 62%
    14:00 +6°C° 0.1 mm 8 m/s 741 mmHg 59%
    15:00 +6°C° 0 mm 7 m/s 741 mmHg 61%
    16:00 +5°C° 0 mm 6 m/s 741 mmHg 63%
    17:00 +6°C° 0 mm 5 m/s 741 mmHg 64%
    18:00 +5°C° 0.3 mm 5 m/s 741 mmHg 69%
    19:00 +5°C° 0.3 mm 5 m/s 741 mmHg 74%
    20:00 +5°C° 0.3 mm 4 m/s 740 mmHg 79%
    21:00 +5°C° 0.9 mm 4 m/s 740 mmHg 82%
    22:00 +6°C° 0.9 mm 4 m/s 740 mmHg 86%
    23:00 +6°C° 0.9 mm 4 m/s 739 mmHg 90%

    26 Octobre, Vendredi

    Heure Température Précipitation Vent Pression Humidité
    00:00 +7°C° 0.5 mm 5 m/s 739 mmHg 90%
    01:00 +7°C° 0.5 mm 5 m/s 740 mmHg 89%
    02:00 +8°C° 0.5 mm 5 m/s 740 mmHg 89%
    03:00 +7°C° 0.3 mm 5 m/s 740 mmHg 89%
    04:00 +7°C° 0.3 mm 5 m/s 740 mmHg 88%
    05:00 +7°C° 0.3 mm 5 m/s 741 mmHg 88%
    06:00 +7°C° 0.1 mm 5 m/s 741 mmHg 88%
    07:00 +7°C° 0.1 mm 5 m/s 741 mmHg 88%
    08:00 +7°C° 0.1 mm 5 m/s 742 mmHg 88%
    09:00 +8°C° 0 mm 5 m/s 742 mmHg 83%
    10:00 +9°C° 0 mm 6 m/s 743 mmHg 78%
    11:00 +9°C° 0 mm 6 m/s 743 mmHg 73%
    12:00 +10°C° 0 mm 6 m/s 743 mmHg 72%
    13:00 +10°C° 0 mm 6 m/s 743 mmHg 71%
    14:00 +10°C° 0 mm 6 m/s 743 mmHg 70%
    15:00 +10°C° 0 mm 5 m/s 743 mmHg 75%
    16:00 +10°C° 0 mm 4 m/s 744 mmHg 79%
    17:00 +9°C° 0 mm 3 m/s 744 mmHg 84%
    18:00 +8°C° 0 mm 4 m/s 744 mmHg 84%
    19:00 +8°C° 0 mm 4 m/s 744 mmHg 84%
    20:00 +8°C° 0 mm 4 m/s 744 mmHg 84%
    21:00 +8°C° 0 mm 4 m/s 744 mmHg 82%
    22:00 +8°C° 0 mm 4 m/s 744 mmHg 80%
    23:00 +8°C° 0 mm 4 m/s 744 mmHg 79%
    Voir plus